This is the latest recevied weather packets stored in our database for station/object AE0NK. If no packets are shown the sender has not sent any weather packets the latest 10 day(s).
| Time | Temp. | Humidity | Pressure | Rain* | Wind** | Luminosity | Snow |
|---|---|---|---|---|---|---|---|
| 1778189004 | 18.33° C | 37% | 1010.1 hPa | 0 mm | - | 694 W/m² | - |
| 1778188701 | 17.78° C | 33% | 1010 hPa | 0 mm | - | 195 W/m² | - |
| 1778188398 | 18.33° C | 33% | 1010.1 hPa | 0 mm | - | 714 W/m² | - |
| 1778188095 | 18.33° C | 37% | 1010.2 hPa | 0 mm | - | 698 W/m² | - |
| 1778187793 | 18.33° C | 36% | 1010.2 hPa | 0 mm | - | 707 W/m² | - |
| 1778187508 | 18.33° C | 38% | 1010.3 hPa | 0 mm | - | 714 W/m² | - |
| 1778187205 | 18.33° C | 37% | 1010.4 hPa | 0 mm | - | 717 W/m² | - |
| 1778186902 | 17.78° C | 38% | 1010.3 hPa | 0 mm | - | 715 W/m² | - |
| 1778186601 | 18.33° C | 39% | 1010.5 hPa | 0 mm | - | 729 W/m² | - |
| 1778186298 | 17.78° C | 39% | 1010.4 hPa | 0 mm | - | 737 W/m² | - |
| 1778185995 | 17.78° C | 41% | 1010.4 hPa | 0 mm | - | 747 W/m² | - |
| 1778185694 | 17.78° C | 40% | 1010.5 hPa | 0 mm | - | 759 W/m² | - |
| 1778185392 | 17.78° C | 39% | 1010.5 hPa | 0 mm | - | 770 W/m² | - |
| 1778185105 | 17.22° C | 40% | 1010.5 hPa | 0 mm | - | 772 W/m² | - |
| 1778184802 | 17.22° C | 44% | 1010.7 hPa | 0 mm | - | 784 W/m² | - |
| 1778184499 | 16.67° C | 42% | 1010.7 hPa | 0 mm | - | 796 W/m² | - |
| 1778184194 | 16.67° C | 44% | 1010.8 hPa | 0 mm | - | 821 W/m² | - |
| 1778183911 | 16.67° C | 46% | 1010.8 hPa | 0 mm | - | 733 W/m² | - |
| 1778183608 | 17.22° C | 48% | 1010.9 hPa | 0 mm | - | 833 W/m² | - |
| 1778183307 | 16.11° C | 49% | 1011 hPa | 0 mm | - | 881 W/m² | - |
| 1778183005 | 15.56° C | 49% | 1011.2 hPa | 0 mm | - | 230 W/m² | - |
| 1778182400 | 15.56° C | 52% | 1011.3 hPa | 0 mm | - | 374 W/m² | - |
| 1778182099 | 15° C | 52% | 1011.6 hPa | 0 mm | - | 292 W/m² | - |
| 1778181797 | 15° C | 52% | 1011.6 hPa | 0 mm | - | 452 W/m² | - |
| 1778181498 | 15° C | 51% | 1011.5 hPa | 0 mm | - | 220 W/m² | - |
* Rain latest hour (hover to see other rain measurements)
** Current wind speed in m/s (hover to see current wind gust speed)